[[{"header":{"parameterUnit":"m.s-1","parameterCategory":1,"la1":30.2991,"la2":30.254,"lo1":-89.0895,"lo2":-89.0444,"dy":0.0017,"dx":0.0017,"nx":28,"ny":28,"refTime":"2025-04-06T09:00:00:Z","depth":0,"parameterNumber":2,"parameterNumberName":"U-component_of_WINDS"},"data":[0,0,0,0,0,0,0,0,0,0,0,0,0,0,0,0,0,0,0,0,0,0,0,0,0,0,0,0,0,0,0,0,0,0,0,0,0,0,0,0,0,0,0,0,0,0,0,0,0,0,0,0,0,0,0,0,0,0,-1.6258,-1.6258,0,-1.6324,-1.6324,-1.6325,-1.6364,-1.6364,-1.6364,-1.6364,-1.6434,-1.6436,-1.6437,0,0,0,0,0,0,0,0,0,0,0,0,0,-1.6167,-1.6169,-1.6257,-1.6258,-1.6259,-1.6323,-1.6324,-1.6325,-1.6363,-1.6364,-1.6364,-1.6364,-1.6433,-1.6435,-1.6437,0,0,0,0,0,0,0,0,0,0,0,0,0,-1.6217,-1.6169,-1.6257,-1.6286,-1.6289,-1.6323,-1.6324,-1.6326,-1.6363,-1.6364,-1.6364,-1.6364,-1.6433,-1.6435,-1.6438,-1.6449,0,0,-1.6446,-1.6447,0,0,0,0,0,0,0,0,-1.6214,-1.6221,-1.6281,-1.6284,-1.6288,-1.6335,-1.6318,-1.6367,-1.6363,-1.6335,-1.6364,-1.6364,-1.6401,-1.6406,-1.6418,-1.6453,-1.6456,-1.6446,-1.6447,-1.6449,-1.6449,0,0,0,0,0,0,0,-1.6211,-1.6218,-1.6284,-1.6282,-1.6286,-1.6296,-1.6304,-1.6328,-1.6366,-1.6338,-1.6341,-1.6348,-1.6403,-1.6416,-1.642,-1.6457,-1.6446,-1.6448,-1.645,-1.6451,-1.6505,-1.6505,0,0,0,0,0,0,-1.6203,-1.6215,-1.6282,-1.6286,-1.6251,-1.6298,-1.6306,-1.632,-1.6366,-1.6373,-1.6348,-1.6349,-1.6411,-1.6417,-1.6423,-1.644,-1.6449,-1.6451,-1.6452,-1.6505,-1.6505,-1.6505,0,0,0,0,0,0,-1.62,-1.6208,-1.6279,-1.6251,-1.6261,-1.6299,-1.6314,-1.6321,-1.6334,-1.6373,-1.6381,-1.6353,-1.6412,-1.6419,-1.6442,-1.6443,-1.6452,-1.6454,-1.6505,-1.6505,-1.6505,-1.6474,0,0,0,0,0,0,-1.6198,-1.6207,-1.6211,-1.6251,-1.6262,-1.6296,-1.6314,-1.6322,-1.6338,-1.6341,-1.6381,-1.6388,-1.6412,-1.6438,-1.6445,-1.6447,-1.6457,-1.6505,-1.6505,-1.6505,-1.6475,-1.6472,-1.647,0,0,0,0,0,-1.6194,-1.62,-1.6211,-1.6219,-1.6268,-1.6296,-1.6303,-1.6331,-1.6338,-1.6343,-1.6368,-1.6386,-1.6442,-1.644,-1.6448,-1.6451,-1.6505,-1.6505,-1.6505,-1.6476,-1.6473,-1.647,0,0,0,0,0,0,-1.616,-1.6206,-1.6219,-1.6237,-1.6263,-1.6303,-1.631,-1.6327,-1.6351,-1.6353,-1.6387,-1.6396,-1.6416,-1.6436,-1.6434,-1.6465,-1.6476,-1.6477,-1.6451,-1.6448,-1.6446,-1.6441,-1.6459,0,0,0,0,0,-1.6155,-1.6173,-1.6213,-1.6225,-1.6237,-1.6271,-1.6285,-1.6304,-1.6332,-1.6343,-1.637,-1.6397,-1.6421,-1.6436,-1.646,-1.6478,-1.6488,-1.6484,-1.6481,-1.6479,-1.648,-1.6492,-1.6491,-1.6504,-1.6504,-1.6504,0,0,-1.6144,-1.6171,-1.6181,-1.6219,-1.6241,-1.626,-1.628,-1.6299,-1.6314,-1.6346,-1.637,-1.6391,-1.6423,-1.6444,-1.6455,-1.6461,-1.6479,-1.6479,-1.6477,-1.6479,-1.6491,-1.649,-1.6489,-1.6504,-1.6504,-1.6504,0,0,-1.6134,-1.6156,-1.6169,-1.6191,-1.6223,-1.6246,-1.6249,-1.6287,-1.6302,-1.6326,-1.635,-1.6369,-1.6409,-1.6431,-1.6448,-1.6447,-1.6465,-1.6454,-1.6443,-1.6454,-1.6453,-1.6452,-1.6452,-1.6452,-1.6455,-1.6455,-1.6455,0,-1.6117,-1.6146,-1.6174,-1.6192,-1.6209,-1.6238,-1.6252,-1.6272,-1.6311,-1.6322,-1.6329,-1.638,-1.6404,-1.643,-1.643,-1.6442,-1.6448,-1.645,-1.645,-1.645,-1.645,-1.645,-1.645,-1.6453,-1.6453,-1.6453,-1.6454,0,-1.6123,-1.6143,-1.615,-1.6186,-1.6203,-1.6219,-1.6251,-1.6266,-1.6283,-1.6305,-1.633,-1.636,-1.6391,-1.6399,-1.6416,-1.6428,-1.6431,-1.6444,-1.6455,-1.6446,-1.6447,-1.6448,-1.6451,-1.6451,-1.6452,-1.6452,0,0,-1.6093,-1.6145,-1.6147,-1.6164,-1.6202,-1.6219,-1.6237,-1.6266,-1.6278,-1.6304,-1.632,-1.6354,-1.6365,-1.6384,-1.6405,-1.6415,-1.6413,-1.6426,-1.6427,-1.6423,-1.6428,-1.6419,-1.6418,-1.6425,-1.6425,-1.6425,-1.6426,0,-1.6089,-1.6121,-1.6148,-1.617,-1.619,-1.6218,-1.6234,-1.6259,-1.6281,-1.6301,-1.6325,-1.6348,-1.6362,-1.6373,-1.6384,-1.641,-1.6414,-1.6411,-1.6441,-1.6442,-1.6432,-1.6419,-1.6409,-1.6408,-1.6426,-1.6426,-1.6426,0,-1.6088,-1.6112,-1.6137,-1.6174,-1.6183,-1.6196,-1.6225,-1.6244,-1.6274,-1.6289,-1.631,-1.6332,-1.6353,-1.6363,-1.6393,-1.639,-1.6404,-1.6419,-1.642,-1.6424,-1.6433,-1.6423,-1.6408,-1.6408,-1.6427,-1.6427,-1.6427,0,-1.6064,-1.6103,-1.6123,-1.6137,-1.618,-1.6189,-1.6207,-1.6238,-1.6254,-1.628,-1.6291,-1.6319,-1.6335,-1.6357,-1.6386,-1.639,-1.6414,-1.6426,-1.6428,-1.6427,-1.6431,-1.643,-1.6419,-1.644,-1.644,-1.644,-1.644,0,-1.6057,-1.6071,-1.6113,-1.6125,-1.6142,-1.6173,-1.6189,-1.621,-1.6237,-1.6255,-1.6281,-1.6297,-1.6335,-1.6356,-1.6379,-1.6401,-1.6408,-1.6421,-1.6427,-1.6419,-1.6417,-1.6428,-1.6429,-1.644,-1.644,-1.644,-1.644,0,-1.6033,-1.6062,-1.6085,-1.6124,-1.6134,-1.6145,-1.6179,-1.6192,-1.6215,-1.6237,-1.6244,-1.6281,-1.6307,-1.6338,-1.6375,-1.639,-1.641,-1.6419,-1.64,-1.6403,-1.6403,-1.6403,-1.6399,-1.64,-1.642,-1.6419,-1.6419,0,-1.6026,-1.6038,-1.6078,-1.6091,-1.6108,-1.6129,-1.6146,-1.6177,-1.6193,-1.6229,-1.6238,-1.6266,-1.629,-1.6331,-1.6362,-1.639,-1.64,-1.6396,-1.6404,-1.6396,-1.64,-1.6399,-1.6401,-1.6394,-1.6394,-1.6394,-1.6393,0,-1.6012,-1.6025,-1.6047,-1.6075,-1.6093,-1.6116,-1.6141,-1.615,-1.6187,-1.6204,-1.6231,-1.6249,-1.6286,-1.6314,-1.6346,-1.6367,-1.6387,-1.6391,-1.6393,-1.6384,-1.6373,-1.6379,-1.6394,-1.6391,-1.6391,-1.6391,-1.6391,-1.6391,-1.5997,-1.6008,-1.6038,-1.6062,-1.6083,-1.6106,-1.612,-1.6145,-1.6167,-1.6199,-1.6217,-1.6243,-1.6274,-1.6319,-1.6339,-1.6361,-1.6368,-1.6371,-1.6372,-1.6372,-1.6369,-1.6369,-1.6367,-1.6367,-1.6367,-1.6367,-1.6368,0,-1.5984,-1.6004,-1.6026,-1.6059,-1.6078,-1.6094,-1.6122,-1.6137,-1.6159,-1.6186,-1.6209,-1.624,-1.6268,-1.63,-1.633,-1.6341,-1.6351,-1.6348,-1.6348,-1.6352,-1.6361,-1.6357,-1.6339,-1.6339,-1.6339,-1.6339,-1.6339,-1.6339,-1.5979,-1.5999,-1.6017,-1.6048,-1.6069,-1.6094,-1.6109,-1.613,-1.6152,-1.6185,-1.6207,-1.6228,-1.6258,-1.629,-1.6316,-1.6325,-1.6335,-1.6329,-1.6341,-1.6349,-1.6351,-1.6354,-1.6349,-1.6331,-1.6331,-1.633,-1.633,-1.633]},{"header":{"parameterUnit":"m.s-1","parameterCategory":1,"la1":30.2991,"la2":30.254,"lo1":-89.0895,"lo2":-89.0444,"dy":0.0017,"dx":0.0017,"nx":28,"ny":28,"refTime":"2025-04-06T09:00:00:Z","depth":0,"parameterNumber":3,"parameterNumberName":"V-component_of_WINDS"},"data":[0,0,0,0,0,0,0,0,0,0,0,0,0,0,0,0,0,0,0,0,0,0,0,0,0,0,0,0,0,0,0,0,0,0,0,0,0,0,0,0,0,0,0,0,0,0,0,0,0,0,0,0,0,0,0,0,0,0,7.9262,7.9263,0,7.9301,7.9301,7.9302,7.9242,7.924,7.9237,7.9236,7.9271,7.9274,7.9276,0,0,0,0,0,0,0,0,0,0,0,0,0,7.9134,7.9137,7.9262,7.9263,7.9263,7.9301,7.9302,7.9302,7.9242,7.9239,7.9237,7.9235,7.927,7.9273,7.9277,0,0,0,0,0,0,0,0,0,0,0,0,0,7.9183,7.9138,7.9262,7.9238,7.9236,7.9301,7.9302,7.9302,7.9243,7.9239,7.9236,7.9233,7.9269,7.9273,7.9277,7.9366,0,0,7.929,7.9292,0,0,0,0,0,0,0,0,7.918,7.9188,7.9241,7.924,7.9238,7.9263,7.9269,7.9323,7.9243,7.924,7.9235,7.9232,7.9271,7.9275,7.9288,7.9368,7.9369,7.9291,7.9293,7.9295,7.9296,0,0,0,0,0,0,0,7.9177,7.9186,7.9278,7.9242,7.924,7.9224,7.9228,7.9279,7.9272,7.924,7.9236,7.9241,7.9269,7.9284,7.9289,7.937,7.9291,7.9294,7.9297,7.9299,7.9526,7.9529,0,0,0,0,0,0,7.9177,7.9183,7.9276,7.9279,7.9201,7.9229,7.9233,7.9258,7.9271,7.9271,7.9244,7.9238,7.9279,7.9284,7.929,7.9396,7.9295,7.9299,7.9302,7.9522,7.9526,7.953,0,0,0,0,0,0,7.9174,7.9186,7.9275,7.923,7.924,7.9235,7.9264,7.9261,7.9276,7.9275,7.9273,7.9261,7.9276,7.9284,7.9348,7.9396,7.9301,7.9305,7.9518,7.9524,7.9528,7.9609,0,0,0,0,0,0,7.9171,7.9185,7.9219,7.9231,7.9243,7.9334,7.9266,7.9264,7.9284,7.9277,7.929,7.9289,7.9275,7.9342,7.9353,7.9401,7.9308,7.9514,7.9521,7.9527,7.9602,7.9616,7.9628,0,0,0,0,0,7.9167,7.9239,7.9221,7.9233,7.9286,7.9336,7.9343,7.9326,7.9288,7.9322,7.9322,7.9289,7.939,7.9349,7.936,7.9411,7.9511,7.9519,7.9526,7.9596,7.9613,7.9628,0,0,0,0,0,0,7.9231,7.924,7.9221,7.9299,7.9318,7.9326,7.9368,7.9344,7.9373,7.9365,7.9341,7.9344,7.9414,7.9418,7.9373,7.9498,7.9444,7.9454,7.9493,7.9509,7.9522,7.952,7.9312,0,0,0,0,0,7.9255,7.9296,7.9301,7.937,7.9381,7.9374,7.9395,7.9381,7.9398,7.9405,7.9409,7.9426,7.9462,7.9486,7.9518,7.9602,7.9605,7.9642,7.9655,7.9666,7.9676,7.9722,7.9739,7.9556,7.9556,7.9555,0,0,7.9303,7.9313,7.9341,7.9384,7.9396,7.944,7.938,7.9428,7.946,7.9412,7.9474,7.9478,7.9495,7.9571,7.9604,7.9576,7.9727,7.9676,7.9685,7.9688,7.9732,7.9749,7.9765,7.9561,7.956,7.9559,0,0,7.9414,7.9426,7.9485,7.95,7.9521,7.9516,7.9531,7.9543,7.9545,7.9607,7.9573,7.9609,7.9671,7.9686,7.9701,7.9821,7.9792,7.9832,7.9901,7.9947,7.9961,7.9974,8.0018,8.0034,7.9842,7.9842,7.9842,0,7.9471,7.9536,7.9519,7.957,7.959,7.9551,7.9612,7.9626,7.9656,7.9671,7.964,7.9718,7.9727,7.9806,7.9836,7.9849,7.9865,7.9831,7.9961,7.9974,7.9985,8.0027,8.0043,7.9847,7.9846,7.9845,7.9845,0,7.9606,7.9652,7.9698,7.9731,7.9756,7.9811,7.9802,7.9829,7.9813,7.9812,7.9876,7.9886,7.9921,7.9939,7.9922,8.0016,7.9999,7.9965,7.991,8.0008,8.0047,8.0062,7.9853,7.9852,7.985,7.9849,0,0,7.9757,7.9782,7.9799,7.9814,7.9836,7.987,7.9924,7.996,7.9985,8.0007,8.0052,8.0107,8.0077,8.0095,8.008,8.012,8.0216,8.0081,8.0081,8.0107,8.0321,8.0347,8.0366,8.0197,8.02,8.0202,8.032,0,7.9869,7.9964,7.9951,8.0042,8.0085,8.005,8.0097,8.0115,8.0115,8.0151,8.015,8.019,8.0147,8.0158,8.0195,8.0196,8.0259,8.0187,8.0238,8.024,8.0236,8.0386,8.0413,8.0524,8.0335,8.0338,8.0339,0,8.0011,8.0042,8.0139,8.0156,8.0173,8.0216,8.0249,8.0284,8.0304,8.0301,8.0323,8.0302,8.0355,8.03,8.0374,8.0326,8.0346,8.035,8.0354,8.0358,8.0296,8.0395,8.0558,8.0575,8.0363,8.0361,8.0359,0,8.0114,8.0179,8.0245,8.0259,8.028,8.0312,8.0322,8.0339,8.0362,8.0391,8.0406,8.044,8.0459,8.0485,8.0474,8.0434,8.0551,8.0494,8.055,8.0551,8.0576,8.0575,8.0746,8.0588,8.0588,8.0588,8.0587,0,8.024,8.0301,8.0292,8.0333,8.04,8.0384,8.0451,8.0456,8.0473,8.0514,8.0484,8.0523,8.0505,8.0543,8.0534,8.0598,8.0606,8.0606,8.0603,8.0609,8.0609,8.0622,8.0614,8.0592,8.0591,8.059,8.059,0,8.0365,8.0362,8.0432,8.0448,8.0453,8.0502,8.0515,8.0553,8.0552,8.0605,8.0616,8.0614,8.0658,8.0649,8.0695,8.069,8.077,8.0757,8.0764,8.0761,8.0819,8.0814,8.1005,8.1029,8.0855,8.0857,8.0858,0,8.0446,8.0493,8.0514,8.0541,8.0554,8.0597,8.0622,8.0608,8.0635,8.0663,8.0698,8.0739,8.0771,8.0842,8.0844,8.088,8.0868,8.0933,8.0873,8.0879,8.0871,8.0868,8.0874,8.0944,8.0946,8.0948,8.0949,0,8.0591,8.0588,8.0626,8.0664,8.0695,8.0723,8.0749,8.0772,8.0761,8.0792,8.0837,8.0863,8.0912,8.0953,8.0988,8.0997,8.0972,8.0968,8.0983,8.099,8.0993,8.0994,8.0797,8.0964,8.0962,8.0961,8.096,8.096,8.0698,8.0738,8.0761,8.0804,8.0823,8.0848,8.0886,8.0891,8.0929,8.0969,8.0959,8.101,8.103,8.1074,8.1087,8.1127,8.1103,8.1125,8.113,8.1136,8.1144,8.0987,8.1133,8.1133,8.1132,8.1132,8.1132,0,8.0842,8.0856,8.0896,8.0934,8.0969,8.0944,8.0972,8.1002,8.1048,8.107,8.1104,8.1156,8.1197,8.1203,8.1242,8.1273,8.1262,8.1283,8.1281,8.1284,8.1162,8.1146,8.1291,8.1291,8.1291,8.1291,8.1291,8.1291,8.0922,8.099,8.099,8.1067,8.1079,8.1131,8.1149,8.1172,8.119,8.1251,8.1286,8.129,8.1306,8.1346,8.1382,8.1383,8.1399,8.1425,8.1421,8.1308,8.1292,8.1277,8.1262,8.1428,8.1429,8.154,8.1541,8.1541]}]]